When you browse on this site, cookies collect data to enhance your experience and personalize the content and advertising you see.
Visit our Privacy Policy to learn more. By continuing to use the site, you agree to this use of cookies and data.
  • In Latvia
  • List of Countries
  • For 7 days
  • Water Temperature
  • Satellite Maps
  • Weather Map
  • Weather Widgets
  • user-avatar
    Login

    Hourly Weather Kotonu

    Today, 16 November, Friday

    Time Temperature Precipitation Wind Pressure Humidity
    00:00 +28°C° 0 mm 2 mps 758 mmHg 87%
    01:00 +28°C° 0.5 mm 2 mps 758 mmHg 87%
    02:00 +28°C° 0.5 mm 2 mps 758 mmHg 87%
    03:00 +28°C° 0.5 mm 3 mps 757 mmHg 87%
    04:00 +28°C° 0 mm 2 mps 758 mmHg 87%
    05:00 +27°C° 0 mm 2 mps 758 mmHg 88%
    06:00 +28°C° 0 mm 1 mps 758 mmHg 87%
    07:00 +30°C° 0 mm 1 mps 758 mmHg 79%
    08:00 +31°C° 0 mm 1 mps 758 mmHg 71%
    09:00 +33°C° 0 mm 1 mps 759 mmHg 63%
    10:00 +35°C° 0 mm 1 mps 758 mmHg 56%
    11:00 +37°C° 0 mm 2 mps 758 mmHg 50%
    12:00 +38°C° 0 mm 2 mps 758 mmHg 43%
    13:00 +38°C° 0 mm 2 mps 757 mmHg 46%
    14:00 +37°C° 0 mm 3 mps 756 mmHg 50%
    15:00 +36°C° 0 mm 4 mps 756 mmHg 53%
    16:00 +35°C° 0 mm 4 mps 756 mmHg 60%
    17:00 +33°C° 0 mm 4 mps 756 mmHg 67%
    18:00 +30°C° 0 mm 4 mps 756 mmHg 74%
    19:00 +30°C° 0 mm 4 mps 757 mmHg 76%
    20:00 +30°C° 0 mm 4 mps 758 mmHg 78%
    21:00 +30°C° 0 mm 4 mps 758 mmHg 79%
    22:00 +29°C° 0 mm 4 mps 758 mmHg 80%
    23:00 +29°C° 0 mm 4 mps 758 mmHg 81%

    Tomorrow, 17 November, Saturday

    Time Temperature Precipitation Wind Pressure Humidity
    00:00 +29°C° 0 mm 4 mps 758 mmHg 82%
    01:00 +29°C° 0 mm 4 mps 758 mmHg 83%
    02:00 +29°C° 0 mm 4 mps 758 mmHg 84%
    03:00 +28°C° 0 mm 4 mps 757 mmHg 85%
    04:00 +28°C° 0 mm 3 mps 758 mmHg 85%
    05:00 +28°C° 0 mm 3 mps 758 mmHg 85%
    06:00 +28°C° 0 mm 3 mps 758 mmHg 85%
    07:00 +29°C° 0 mm 3 mps 758 mmHg 80%
    08:00 +30°C° 0 mm 3 mps 759 mmHg 75%
    09:00 +31°C° 0 mm 3 mps 759 mmHg 70%
    10:00 +33°C° 0 mm 3 mps 759 mmHg 67%
    11:00 +34°C° 0 mm 3 mps 758 mmHg 64%
    12:00 +35°C° 0 mm 3 mps 758 mmHg 61%
    13:00 +34°C° 0 mm 3 mps 757 mmHg 61%
    14:00 +34°C° 0 mm 4 mps 757 mmHg 61%
    15:00 +34°C° 0 mm 4 mps 756 mmHg 61%
    16:00 +33°C° 0 mm 4 mps 756 mmHg 67%
    17:00 +32°C° 0 mm 4 mps 757 mmHg 72%
    18:00 +30°C° 0 mm 4 mps 757 mmHg 77%
    19:00 +30°C° 0 mm 4 mps 757 mmHg 78%
    20:00 +30°C° 0 mm 4 mps 758 mmHg 79%
    21:00 +29°C° 0 mm 4 mps 759 mmHg 81%
    22:00 +29°C° 0 mm 4 mps 759 mmHg 82%
    23:00 +29°C° 0 mm 4 mps 758 mmHg 82%

    Day after tomorrow, 18 November, Sunday

    Time Temperature Precipitation Wind Pressure Humidity
    00:00 +29°C° 0 mm 4 mps 758 mmHg 83%
    01:00 +29°C° 0 mm 4 mps 758 mmHg 84%
    02:00 +28°C° 0 mm 4 mps 757 mmHg 85%
    03:00 +28°C° 0 mm 4 mps 757 mmHg 85%
    04:00 +28°C° 0 mm 3 mps 757 mmHg 86%
    05:00 +28°C° 0 mm 3 mps 758 mmHg 86%
    06:00 +28°C° 0 mm 3 mps 758 mmHg 86%
    07:00 +30°C° 0 mm 3 mps 758 mmHg 79%
    08:00 +31°C° 0 mm 3 mps 759 mmHg 71%
    09:00 +34°C° 0 mm 3 mps 759 mmHg 63%
    10:00 +35°C° 0 mm 3 mps 759 mmHg 60%
    11:00 +36°C° 0 mm 3 mps 758 mmHg 56%
    12:00 +36°C° 0 mm 3 mps 758 mmHg 53%
    13:00 +36°C° 0 mm 4 mps 757 mmHg 55%
    14:00 +35°C° 0 mm 4 mps 756 mmHg 57%
    15:00 +35°C° 0 mm 4 mps 755 mmHg 59%
    16:00 +34°C° 0 mm 4 mps 756 mmHg 65%
    17:00 +32°C° 0 mm 4 mps 756 mmHg 70%
    18:00 +30°C° 0 mm 4 mps 756 mmHg 76%
    19:00 +30°C° 0 mm 4 mps 757 mmHg 78%
    20:00 +30°C° 0 mm 4 mps 757 mmHg 80%
    21:00 +29°C° 0 mm 4 mps 758 mmHg 81%
    22:00 +29°C° 0 mm 4 mps 758 mmHg 82%
    23:00 +29°C° 0 mm 4 mps 758 mmHg 83%

    19 November, Monday

    Time Temperature Precipitation Wind Pressure Humidity
    00:00 +29°C° 0 mm 4 mps 758 mmHg 84%
    01:00 +29°C° 0.1 mm 4 mps 757 mmHg 85%
    02:00 +28°C° 0.1 mm 3 mps 757 mmHg 86%
    03:00 +28°C° 0.1 mm 3 mps 756 mmHg 87%
    04:00 +28°C° 0 mm 3 mps 756 mmHg 88%
    05:00 +28°C° 0 mm 3 mps 757 mmHg 88%
    06:00 +28°C° 0 mm 3 mps 757 mmHg 89%
    07:00 +29°C° 0 mm 4 mps 758 mmHg 82%
    08:00 +32°C° 0 mm 4 mps 758 mmHg 74%
    09:00 +34°C° 0 mm 4 mps 758 mmHg 67%
    10:00 +34°C° 0 mm 4 mps 758 mmHg 64%
    11:00 +35°C° 0 mm 4 mps 757 mmHg 60%
    12:00 +36°C° 0 mm 4 mps 757 mmHg 57%
    13:00 +36°C° 0.1 mm 4 mps 756 mmHg 58%
    14:00 +35°C° 0.1 mm 4 mps 756 mmHg 59%
    15:00 +35°C° 0.1 mm 4 mps 755 mmHg 60%
    16:00 +34°C° 0 mm 4 mps 755 mmHg 66%
    17:00 +32°C° 0 mm 4 mps 755 mmHg 72%
    18:00 +30°C° 0 mm 4 mps 756 mmHg 77%
    19:00 +30°C° 0 mm 4 mps 756 mmHg 79%
    20:00 +30°C° 0 mm 4 mps 757 mmHg 80%
    21:00 +29°C° 0 mm 3 mps 758 mmHg 82%
    22:00 +29°C° 0 mm 4 mps 757 mmHg 82%
    23:00 +29°C° 0 mm 4 mps 757 mmHg 83%

    20 November, Tuesday

    Time Temperature Precipitation Wind Pressure Humidity
    00:00 +29°C° 0 mm 4 mps 757 mmHg 84%
    01:00 +29°C° 0.4 mm 4 mps 757 mmHg 85%
    02:00 +28°C° 0.4 mm 4 mps 756 mmHg 86%
    03:00 +28°C° 0.4 mm 4 mps 756 mmHg 88%
    04:00 +28°C° 0.2 mm 4 mps 756 mmHg 88%
    05:00 +28°C° 0.2 mm 4 mps 757 mmHg 88%
    06:00 +28°C° 0.2 mm 4 mps 757 mmHg 88%
    07:00 +30°C° 0 mm 4 mps 758 mmHg 81%
    08:00 +32°C° 0 mm 4 mps 758 mmHg 74%
    09:00 +34°C° 0 mm 4 mps 759 mmHg 67%
    10:00 +34°C° 0.2 mm 4 mps 758 mmHg 65%
    11:00 +35°C° 0.2 mm 4 mps 758 mmHg 62%
    12:00 +35°C° 0.2 mm 4 mps 757 mmHg 60%
    13:00 +35°C° 0.1 mm 4 mps 756 mmHg 60%
    14:00 +35°C° 0.1 mm 4 mps 756 mmHg 60%
    15:00 +35°C° 0.1 mm 4 mps 755 mmHg 60%
    16:00 +34°C° 0 mm 4 mps 756 mmHg 65%
    17:00 +33°C° 0 mm 4 mps 756 mmHg 71%
    18:00 +30°C° 0 mm 4 mps 757 mmHg 76%
    19:00 +30°C° 0 mm 4 mps 757 mmHg 78%
    20:00 +30°C° 0 mm 4 mps 758 mmHg 79%
    21:00 +29°C° 0 mm 4 mps 758 mmHg 81%
    22:00 +29°C° 0 mm 4 mps 758 mmHg 82%
    23:00 +29°C° 0 mm 4 mps 758 mmHg 82%

    21 November, Wednesday

    Time Temperature Precipitation Wind Pressure Humidity
    00:00 +29°C° 0 mm 4 mps 758 mmHg 83%
    01:00 +29°C° 0 mm 4 mps 757 mmHg 84%
    02:00 +29°C° 0 mm 4 mps 757 mmHg 84%
    03:00 +29°C° 0 mm 4 mps 756 mmHg 85%
    04:00 +29°C° 0 mm 4 mps 756 mmHg 85%
    05:00 +29°C° 0 mm 4 mps 757 mmHg 86%
    06:00 +28°C° 0 mm 4 mps 757 mmHg 86%
    07:00 +30°C° 0 mm 4 mps 757 mmHg 80%
    08:00 +32°C° 0 mm 4 mps 758 mmHg 73%
    09:00 +34°C° 0 mm 4 mps 758 mmHg 67%
    10:00 +34°C° 0.1 mm 4 mps 758 mmHg 64%
    11:00 +35°C° 0.1 mm 4 mps 757 mmHg 62%
    12:00 +35°C° 0.1 mm 5 mps 757 mmHg 60%
    13:00 +35°C° 0.3 mm 5 mps 756 mmHg 61%
    14:00 +35°C° 0.3 mm 5 mps 756 mmHg 63%
    15:00 +34°C° 0.3 mm 5 mps 755 mmHg 65%
    16:00 +33°C° 0 mm 5 mps 755 mmHg 69%
    17:00 +32°C° 0 mm 4 mps 756 mmHg 73%
    18:00 +30°C° 0 mm 4 mps 756 mmHg 77%
    19:00 +30°C° 0 mm 4 mps 757 mmHg 79%
    20:00 +30°C° 0 mm 4 mps 757 mmHg 80%
    21:00 +29°C° 0 mm 4 mps 758 mmHg 82%
    22:00 +29°C° 0 mm 4 mps 757 mmHg 83%
    23:00 +29°C° 0 mm 5 mps 757 mmHg 84%
    Show more